This is the latest recevied weather packets stored in our database for station/object W8AN. If no packets are shown the sender has not sent any weather packets the latest 10 day(s).
| Time | Temp. | Humidity | Pressure | Rain* | Wind** | Luminosity | Snow |
|---|---|---|---|---|---|---|---|
| 1777742255 | 7.22° C | 53% | 4273 hPa | 0 mm | - | 261 W/m² | - |
| 1777741952 | 7.22° C | 50% | 4272.8 hPa | 0 mm | - | 328 W/m² | - |
| 1777741649 | 7.78° C | 50% | 4273.1 hPa | 0 mm | - | 484 W/m² | - |
| 1777741346 | 7.78° C | 48% | 4273 hPa | 0 mm | - | 460 W/m² | - |
| 1777741041 | 7.22° C | 47% | 4272.9 hPa | 0 mm | - | 393 W/m² | - |
| 1777740739 | 7.22° C | 48% | 4273.2 hPa | 0 mm | - | 328 W/m² | - |
| 1777740435 | 7.78° C | 54% | 4273.3 hPa | 0 mm | - | 298 W/m² | - |
| 1777740133 | 7.22° C | 57% | 4273.2 hPa | 0 mm | - | 302 W/m² | - |
| 1777739828 | 7.22° C | 54% | 4273.1 hPa | 0 mm | - | 332 W/m² | - |
| 1777739525 | 7.22° C | 55% | 4273.2 hPa | 0 mm | - | 359 W/m² | - |
| 1777739222 | 6.67° C | 50% | 4273.4 hPa | 0 mm | - | 371 W/m² | - |
| 1777738919 | 7.22° C | 52% | 4273.3 hPa | 0 mm | - | 352 W/m² | - |
| 1777738616 | 6.67° C | 54% | 4273.5 hPa | 0 mm | - | 310 W/m² | - |
| 1777738312 | 6.67° C | 55% | 4273.4 hPa | 0 mm | - | 279 W/m² | - |
| 1777738011 | 6.67° C | 56% | 4273.4 hPa | 0 mm | - | 252 W/m² | - |
| 1777737710 | 6.67° C | 56% | 4273.5 hPa | 0 mm | - | 201 W/m² | - |
| 1777737407 | 6.11° C | 57% | 4273.4 hPa | 0 mm | - | 154 W/m² | - |
| 1777737104 | 6.11° C | 59% | 4273.4 hPa | 0 mm | - | 119 W/m² | - |
| 1777736800 | 6.11° C | 57% | 4273.4 hPa | 0 mm | - | 92 W/m² | - |
| 1777736178 | 6.67° C | 53% | 4273.2 hPa | 0 mm | - | 153 W/m² | - |
| 1777735875 | 6.67° C | 57% | 4273.4 hPa | 0 mm | - | 216 W/m² | - |
| 1777735572 | 6.67° C | 55% | 4273.2 hPa | 0 mm | - | 246 W/m² | - |
| 1777735269 | 6.67° C | 55% | 4273.2 hPa | 0 mm | - | 245 W/m² | - |
| 1777734966 | 6.67° C | 58% | 4273.1 hPa | 0 mm | - | 221 W/m² | - |
| 1777734664 | 6.67° C | 56% | 4273.1 hPa | 0 mm | - | 209 W/m² | - |
* Rain latest hour (hover to see other rain measurements)
** Current wind speed in m/s (hover to see current wind gust speed)